Location: *
(45.9500°N, 9.0833°E)
Time: 05:19:46
(UTC+00:00)

SR - Pass Details

Date: 18 June 2021
Orbit: 577 x 878 km, 66.7° (Epoch: 24 July)

Event Time Altitude Azimuth Distance (km) Brightness Sun altitude
Rises 16:26:55 0° 214° (SW) 3,446 ? 26.5°
Reaches altitude 10° 16:29:24 10° 216° (SW) 2,523 ? 26.0°
Maximum altitude 16:35:19 81° 303° (WNW) 891 ? 25.0°
Drops below altitude 10° 16:41:10 10° 32° (NNE) 2,493 ? 24.0°
Sets 16:43:36 0° 33° (NNE) 3,403 ? 23.6°
